Regional Weather Roundup
Issued by NWS

Home | Current Version | Previous Version | Graphics & Text | Print | Product List | Glossary On
Versions: 1 2 3 4 5 6 7 8 9 10 11 12 13 14 15 16 17 18 19 20 21 22 23 24 25 26 27 28 29 30 31 32 33 34 35 36 37 38 39 40 41 42 43 44 45 46 47 48 49 50
000
ASUS43 KOAX 211010
RWRNE

WEATHER ROUNDUP FOR NEBRASKA
NATIONAL WEATHER SERVICE OMAHA NE
500 AM CDT THU SEP 21 2017

NOTES: SATELLITE DATA IS BEING USED TO AUGMENT CLOUD COVER ABOVE
       12000 FEET.
       "FAIR" INDICATES FEW OR NO CLOUDS BELOW 12,000 FEET WITH NO
       SIGNIFICANT WEATHER AND/OR OBSTRUCTIONS TO VISIBILITY.


NEZ001>004-019>022-054>056-211100-
NEBRASKA PANHANDLE

CITY           SKY/WX    TMP DP  RH WIND       PRES   REMARKS
SCOTTSBLUFF    CLEAR     53  36  52 E14       29.76F
ALLIANCE       CLEAR     53  38  56 SE17      29.77F
CHADRON        CLEAR     62  34  35 S35G51    29.66F
GORDON         FAIR      58  39  49 S9        29.77F
KIMBALL        CLEAR     51  37  57 S9        29.79F
SIDNEY         CLEAR     49  35  58 S7        29.80F
$$

NEZ057>060-069>072-079>082-211100-
SOUTHWEST NEBRASKA

CITY           SKY/WX    TMP DP  RH WIND       PRES   REMARKS
NORTH PLATTE   CLEAR     47  43  86 E7        29.83F
IMPERIAL       CLEAR     51  41  68 SE7       29.81F
LEXINGTON      CLEAR     54  48  79 SE5       29.83F
MCCOOK         CLEAR     50  45  83 E7        29.81F
OGALLALA       CLEAR     46  39  77 CALM      29.82F
$$

NEZ005>010-023>029-035>040-094-211100-
NORTH CENTRAL NEBRASKA

CITY           SKY/WX    TMP DP  RH WIND       PRES   REMARKS
VALENTINE      CLEAR     59  42  53 S14       29.81S
AINSWORTH      CLEAR     57  47  70 SE14      29.83F
BROKEN BOW     CLEAR     50  44  80 E3        29.84F
O`NEILL        CLEAR     51  47  87 SE6       29.88S
ORD            CLEAR     47  44  90 CALM      29.84F
THEDFORD       CLEAR     55  46  69 SE9       29.83F
$$

NEZ041-046>049-061>064-073>077-083>087-211100-
SOUTH CENTRAL NEBRASKA

CITY           SKY/WX    TMP DP  RH WIND       PRES   REMARKS
GRAND ISLAND   CLEAR     52  51  97 NE3       29.85F
AURORA         CLEAR     53  52  94 N6        29.83F
HASTINGS       CLEAR     53  49  86 NE3       29.84F
HEBRON         CLEAR     62  57  83 CALM      29.81F
HOLDREGE       CLEAR     52  48  86 E5        29.83F
KEARNEY        CLEAR     51  48  89 NE5       29.84F
YORK           PTCLDY    59  54  82 E5        29.83F
$$

NEZ011>018-030>034-042>045-211100-
NORTHEAST NEBRASKA

CITY           SKY/WX    TMP DP  RH WIND       PRES   REMARKS
NORFOLK        CLEAR     54  48  80 CALM      29.86F
ALBION         CLEAR     49  48  96 CALM      29.87F
BLAIR          PTCLDY    62  55  79 NE8       29.86S
COLUMBUS       PTCLDY    56  52  86 E7        29.85F
FREMONT        MOCLDY    60  54  79 E5        29.86S
TEKAMAH        CLEAR     55  52  89 N6        29.87F
WAYNE          CLEAR     51  49  91 CALM      29.88S
$$

NEZ050>053-065>068-078-088>093-211100-
SOUTHEAST NEBRASKA

CITY           SKY/WX    TMP DP  RH WIND       PRES   REMARKS
LINCOLN        PTCLDY    61  55  81 NE5       29.84F
OMAHA EPPLEY   MOCLDY    69  57  65 SE5       29.85F
BEATRICE       CLEAR     68  61  77 E6        29.83S
FALLS CITY     CLEAR     69  65  86 E5        29.83F
NEBRASKA CITY  CLEAR     66  64  91 E3        29.85F
PLATTSMOUTH    CLEAR     67  60  78 E7        29.85F
$$

NEZ044-045-051>053-067-211100-
OMAHA AREA

CITY           SKY/WX    TMP DP  RH WIND       PRES   REMARKS
OMAHA EPPLEY   MOCLDY    69  57  65 SE5       29.85F
BLAIR          PTCLDY    62  55  79 NE8       29.86S
FREMONT        MOCLDY    60  54  79 E5        29.86S
MILLARD        PTCLDY    69  59  69 E5        29.85F
OFFUTT AFB     PTCLDY    67  58  72 E7        29.85S
PLATTSMOUTH    CLEAR     67  60  78 E7        29.85F
WAHOO          FAIR      57  56  94 CALM      29.85F
$$




USA.gov is the U.S. government's official web portal to all federal, state and local government web resources and services.